• Join FlightAware (Why Join?)
  • Login
  • US Flag 
11:10PM EDT


 

Airport Tracker/Info


-or-


 

Live Flight TrackerFlight Track Log ✈ DKT111 ✈ 10-May-2013 ✈ KJMS - KFSD

Flight Track Log - Related Links

Times and Time Zones

All times are in EDT time to prevent confusion due to time zone crossing. See the DKT111 flight status page for this flight to view local times or setup timezone preferences in your user account.

Time Position Orientation Groundspeed Altitude Reporting Facility
EDT Latitude Longitude Course Direction KTS MPH feet Rate Location/Type
10:44AM 46.8306 -98.5786 149° Southeast 140 161 3,900  Level Minneapolis Center
10:45AM 46.7944 -98.5425 146° Southeast 150 173 4,500 480 Climbing Minneapolis Center
10:46AM 46.7569 -98.5067 147° Southeast 157 181 4,900 540 Climbing Minneapolis Center
10:47AM 46.7064 -98.4714 154° Southeast 166 191 5,700 600 Climbing Minneapolis Center
10:48AM 46.6628 -98.4472 159° South 167 192 6,200 480 Climbing Minneapolis Center
10:49AM 46.6668 -98.5168 157° South  Level Estimated
10:49AM 46.6161 -98.4231 160° South 174 200 6,700  Level Minneapolis Center
10:50AM 46.5694 -98.3925 156° South 179 206 6,900 120 Climbing Minneapolis Center
10:52AM 46.5181 -98.3664 161° South 190 219 7,000  Climbing Minneapolis Center
10:53AM 46.4653 -98.3375 159° South 199 229 6,900 -60 Descending Minneapolis Center
10:54AM 46.4017 -98.3006 158° South 203 234 6,900  Level Minneapolis Center
10:55AM 46.3483 -98.2711 159° South 206 237 6,900  Level Minneapolis Center
10:56AM 46.2964 -98.2425 159° South 202 232 6,900  Level Minneapolis Center
10:57AM 46.2428 -98.2147 160° South 203 234 6,900  Level Minneapolis Center
10:58AM 46.1911 -98.1869 160° South 201 231 7,000  Climbing Minneapolis Center
10:59AM 46.1381 -98.1606 161° South 201 231 7,000  Level Minneapolis Center
11:00AM 46.0767 -98.1283 160° South 202 232 7,000  Level Minneapolis Center
11:01AM 46.0183 -98.1014 162° South 203 234 7,000  Level Minneapolis Center
11:02AM 45.9708 -98.0747 159° South 196 226 7,000  Level Minneapolis Center
11:03AM 45.9161 -98.0422 158° South 201 231 7,000  Level Minneapolis Center
11:04AM 45.8619 -98.0114 158° South 201 231 7,000  Level Minneapolis Center
11:05AM 45.7853 -97.9719 160° South 174 200 7,000  Level Minneapolis Center
11:06AM 45.7292 -97.9464 162° South 198 228 7,000  Level Minneapolis Center
11:07AM 45.6847 -97.9203 158° South 196 226 7,100  Climbing Minneapolis Center
11:09AM 45.6056 -97.8714 157° South 242 278 7,000 -60 Descending Minneapolis Center
11:10AM 45.5506 -97.8447 161° South 214 246 7,000  Level Minneapolis Center
11:11AM 45.5014 -97.8108 154° Southeast 202 232 7,000  Level Minneapolis Center
11:12AM 45.4419 -97.7722 155° Southeast 200 230 7,000  Level Minneapolis Center
11:13AM 45.3917 -97.7411 157° South 198 228 7,000 -60 Level Minneapolis Center
11:14AM 45.3372 -97.7156 162° South 203 234 6,900  Descending Minneapolis Center
11:15AM 45.2878 -97.6858 157° South 199 229 7,000  Climbing Minneapolis Center
11:16AM 45.2356 -97.6556 158° South 200 230 7,000  Level Minneapolis Center
11:17AM 45.1839 -97.6242 157° South 202 232 7,000  Level Minneapolis Center
11:18AM 45.1239 -97.5867 156° South 199 229 7,000 -60 Level Minneapolis Center
11:19AM 45.0600 -97.5542 160° South 201 231 6,900  Descending Minneapolis Center
11:20AM 45.0075 -97.5267 160° South 202 232 7,000  Climbing Minneapolis Center
11:21AM 44.9547 -97.4989 160° South 202 232 7,000  Level Minneapolis Center
11:23AM 44.8914 -97.4672 160° South 202 232 7,000  Level Minneapolis Center
11:24AM 44.8392 -97.4378 158° South 201 231 7,100  Climbing Minneapolis Center
11:25AM 44.7786 -97.3975 155° Southeast 203 234 7,100 -60 Level Minneapolis Center
11:26AM 44.7300 -97.3625 153° Southeast 200 230 7,000 -60 Descending Minneapolis Center
11:27AM 44.6794 -97.3314 156° South 198 228 7,000  Level Minneapolis Center
11:28AM 44.6261 -97.3044 160° South 200 230 7,000  Level Minneapolis Center
11:29AM 44.5775 -97.2736 156° South 196 226 7,000  Level Minneapolis Center
11:30AM 44.5253 -97.2461 159° South 199 229 7,000 -60 Level Minneapolis Center
11:31AM 44.4631 -97.2150 160° South 199 229 6,900  Descending Minneapolis Center
11:32AM 44.4131 -97.1878 159° South 197 227 7,000  Climbing Minneapolis Center
11:33AM 44.3633 -97.1575 156° South 195 224 7,000  Level Minneapolis Center
11:34AM 44.3128 -97.1350 162° South 193 222 7,100  Climbing Minneapolis Center
11:35AM 44.2611 -97.1086 160° South 195 224 7,000 -60 Descending Minneapolis Center
11:36AM 44.1992 -97.0758 159° South 197 227 7,000  Level Minneapolis Center
11:37AM 44.1469 -97.0494 160° South 200 230 7,000  Level Minneapolis Center
11:38AM 44.0967 -97.0228 159° South 197 227 7,000  Level Minneapolis Center
11:39AM 44.0492 -96.9897 153° Southeast 195 224 7,000  Level Minneapolis Center
11:40AM 44.0008 -96.9558 153° Southeast 194 223 7,000  Level Minneapolis Center
11:41AM 43.9522 -96.9219 153° Southeast 195 224 7,000 -180 Level Minneapolis Center
11:42AM 43.8942 -96.8814 153° Southeast 195 224 6,700 -540 Descending Minneapolis Center
11:43AM 43.8411 -96.8481 156° South 200 230 6,000 -720 Descending Minneapolis Center
11:44AM 43.7864 -96.8169 158° South 207 238 5,300 -720 Descending Minneapolis Center
11:45AM 43.7322 -96.7872 158° South 210 242 4,600 -780 Descending Minneapolis Center
11:46AM 43.6797 -96.7639 162° South 207 238 3,700 -900 Descending Minneapolis Center
11:48AM 43.6306 -96.7411 161° South 198 228 2,800 -720 Descending Minneapolis Center
11:49AM 43.5783 -96.7144 160° South 183 211 2,300 -360 Descending Minneapolis Center
11:50AM 43.5378 -96.6978 163° South 179 206 2,100 -240 Descending Minneapolis Center
11:52AM 43.5820 -96.7419 324° Northwest  Level Estimated